Corsicana, TX

8:10 PM CST on February 21, 2017 (GMT -0600)
Campbell-Corsicana Municipal

Weather History for KCRS - August, 2013

Change the Weather History Date:

Monday, August 19, 2013

  Actual Average (KACT) Record (KACT)
Temperature  
Mean Temperature 82 °F -  
Max Temperature 96 °F 94 °F 107 °F (2011)
Min Temperature 69 °F 73 °F 64 °F (1940)
Cooling Degree Days 17    
Growing Degree Days 32 (Base 50)    
Moisture  
Dew Point 60 °F    
Average Humidity 49    
Maximum Humidity 81    
Minimum Humidity 23    
Precipitation  
Precipitation 0.00 in - - ()
Sea Level Pressure  
Sea Level Pressure 30.00 in    
Wind  
Wind Speed 4 mph (ESE)    
Max Wind Speed 8 mph    
Max Gust Speed 17 mph    
Visibility 10 miles    
Events      
Averages and records for this station are not official NWS values.
T = Trace of Precipitation, MM = Missing Value Source: NWS Daily Summary

Daily Weather History Graph

Daily Weather History Graph

Search for Another Location

Airport or City:

Trip Planner

Search our weather history database for the weather conditions in past years. The results will help you decide how hot, cold, wet, or windy it might be!

Date:

Astronomy

Aug. 19, 2013 Rise Set
Actual Time 6:52 AM CDT 8:04 PM CDT
Civil Twilight 6:27 AM CDT 8:30 PM CDT
Nautical Twilight 5:56 AM CDT 9:00 PM CDT
Astronomical Twilight 5:25 AM CDT 9:31 PM CDT
Moon 6:56 PM CDT (8/19) 5:15 AM CDT (8/19)
Length of Visible Light 14h 02m
Length of Day
13h 11m
Waxing Gibbous, 97% of the Moon is Illuminated
Aug 19
Waxing Gibbous
Aug 20
Full
Aug 28
Last Quarter
Sep 5
New
Sep 12
First Quarter

Hourly Weather History & Observations

Time (CDT) Temp. Heat Index Dew Point Humidity Pressure Visibility Wind Dir Wind Speed Gust Speed Precip Events Conditions
12:53 AM 73.0 °F - 57.9 °F 59% 30.01 in 10.0 mi Calm Calm - N/A   Clear
1:53 AM 73.9 °F - 60.1 °F 62% 30.00 in 10.0 mi NE 4.6 mph - N/A   Clear
2:53 AM 73.0 °F - 60.1 °F 64% 30.01 in 10.0 mi NE 5.8 mph - N/A   Clear
3:53 AM 71.1 °F - 61.0 °F 70% 30.01 in 10.0 mi East 4.6 mph - N/A   Clear
4:53 AM 71.1 °F - 62.1 °F 73% 30.01 in 10.0 mi East 4.6 mph - N/A   Clear
5:53 AM 71.1 °F - 63.0 °F 75% 30.01 in 10.0 mi East 6.9 mph - N/A   Clear
6:53 AM 69.1 °F - 63.0 °F 81% 30.03 in 9.0 mi East 3.5 mph - N/A   Clear
7:53 AM 72.0 °F - 64.0 °F 76% 30.05 in 9.0 mi SE 5.8 mph - N/A   Clear
8:53 AM 78.1 °F - 64.0 °F 62% 30.06 in 10.0 mi SE 4.6 mph - N/A   Clear
9:53 AM 82.0 °F 83.8 °F 64.9 °F 56% 30.07 in 10.0 mi South 6.9 mph - N/A   Clear
10:53 AM 86.0 °F 87.6 °F 64.9 °F 49% 30.07 in 10.0 mi SSE 6.9 mph - N/A   Clear
11:53 AM 89.1 °F 91.0 °F 64.9 °F 45% 30.06 in 10.0 mi SSE 8.1 mph 17.3 mph N/A   Clear
12:53 PM 91.9 °F 90.8 °F 57.9 °F 32% 30.04 in 10.0 mi South 6.9 mph - N/A   Partly Cloudy
1:53 PM 93.9 °F 92.0 °F 55.0 °F 27% 30.02 in 10.0 mi SE 8.1 mph 16.1 mph N/A   Clear
2:53 PM 93.9 °F 92.6 °F 57.0 °F 29% 29.99 in 10.0 mi SE 5.8 mph - N/A   Partly Cloudy
3:53 PM 95.0 °F 93.7 °F 57.0 °F 28% 29.96 in 10.0 mi ESE 3.5 mph - N/A   Scattered Clouds
4:53 PM 95.0 °F 93.0 °F 55.0 °F 26% 29.95 in 10.0 mi Calm Calm - N/A   Partly Cloudy
5:53 PM 95.0 °F - 52.0 °F 23% 29.93 in 10.0 mi ESE 3.5 mph - N/A   Clear
6:53 PM 93.9 °F 91.4 °F 53.1 °F 25% 29.92 in 10.0 mi East 6.9 mph - N/A   Clear
7:53 PM 90.0 °F 87.7 °F 54.0 °F 29% 29.94 in 10.0 mi East 3.5 mph - N/A   Clear
8:53 PM 86.0 °F 85.0 °F 57.9 °F 38% 29.95 in 10.0 mi East 6.9 mph - N/A   Partly Cloudy
9:53 PM 82.9 °F 84.0 °F 63.0 °F 51% 29.96 in 10.0 mi ESE 5.8 mph - N/A   Clear
10:53 PM 82.0 °F 83.1 °F 63.0 °F 52% 29.97 in 10.0 mi ESE 5.8 mph - N/A   Clear
11:53 PM 81.0 °F 82.2 °F 63.0 °F 54% 29.97 in 10.0 mi ESE 4.6 mph - N/A   Clear